Regional Weather Roundup
Issued by NWS Charleston, WV

Home | Current Version | Previous Version | Text Only | Print | Product List | Glossary Off
Versions: 1 2 3 4 5 6 7 8 9 10 11 12 13 14 15 16 17 18 19 20 21 22 23 24 25 26 27 28 29 30 31 32 33 34 35 36 37 38 39 40 41 42 43 44 45 46 47 48 49 50

000
ASUS41 KRLX 031610
RWRRLX
West Virginia Regional Weather Roundup
National Weather Service Charleston WV
1100 AM EST SAT DEC 03 2016

Note: "fair" indicates few or no clouds below 12,000 feet with no
significant weather and/or obstructions to visibility.

WVZ003-031700-
Northern Panhandle of West Virginia

CITY           SKY/WX    TMP DP  RH WIND       PRES   REMARKS
WHEELING       CLOUDY    35  27  72 W7        30.31F
$$

WVZ009-031700-
Northwest West Virginia

CITY           SKY/WX    TMP DP  RH WIND       PRES   REMARKS
PARKERSBURG    CLOUDY    39  27  62 CALM      30.38S
$$

WVZ006-031700-
Western West Virginia

CITY           SKY/WX    TMP DP  RH WIND       PRES   REMARKS
HUNTINGTON     CLOUDY    41  26  55 N5        30.36F
$$

WVZ015-031700-
West Central West Virginia

CITY           SKY/WX    TMP DP  RH WIND       PRES   REMARKS
CHARLESTON     CLOUDY    40  26  57 NW6       30.35S
$$

WVZ022-031-031700-
North Central West Virginia

CITY           SKY/WX    TMP DP  RH WIND       PRES   REMARKS
CLARKSBURG     CLOUDY    37  27  67 W5        30.32S
MORGANTOWN     CLOUDY    37  26  64 VRB5      30.32S
$$

WVZ025-035-042-045-031700-
Southern West Virginia

CITY           SKY/WX    TMP DP  RH WIND       PRES   REMARKS
BECKLEY        CLOUDY    32  23  69 NW7       30.29S
LOGAN          CLOUDY    36  27  69 CALM      30.33F
BLUEFIELD      CLOUDY    31  23  72 NW6       30.28S
LEWISBURG      CLOUDY    33  23  66 W5        30.29S
$$

WVZ047-031700-
Northern Mountains of West Virginia

CITY           SKY/WX    TMP DP  RH WIND       PRES   REMARKS
ELKINS         CLOUDY    34  25  69 W10       30.29R
$$

WVZ052-031700-
Eastern Panhandle of West Virginia

CITY           SKY/WX    TMP DP  RH WIND       PRES   REMARKS
MARTINSBURG    PTSUNNY   42  28  57 W14G23    30.25S
PETERSBURG     PTSUNNY   43  30  59 W10G16    30.28S
$$




USA.gov is the U.S. government's official web portal to all federal, state and local government web resources and services.